Location: Praha
(50.0830°N, 14.4670°E)
Time: 06:05:05
(UTC+01:00)

ISS - Pass Details

Date: 28 November 2019
Orbit: 411 x 421 km, 51.6° (Epoch: 15 December)

Event Time Altitude Azimuth Distance (km) Brightness Sun altitude
Rises 16:47:37 0° 230° (SW) 2,345 1.9 -6.8°
Reaches altitude 10° 16:49:46 10° 223° (SW) 1,488 0.3 -7.1°
Maximum altitude 16:52:56 42° 151° (SSE) 606 -3.0 -7.6°
Enters shadow 16:56:07 10° 79° (E) 1,488 -1.6 -8.0°
